TimeMDT,TemperatureF,Dew PointF,Humidity,Sea Level PressureIn,VisibilityMPH,Wind Direction,Wind SpeedMPH,Gust SpeedMPH,PrecipitationIn,Events,Conditions,WindDirDegrees,DateUTC
12:15 AM,46.4,5.0,18,30.45,10.0,North,-9999.0,-,N/A,,Clear,0,2013-06-19 06:15:00
12:35 AM,44.6,5.0,20,30.44,10.0,North,-9999.0,-,N/A,,Clear,0,2013-06-19 06:35:00
12:55 AM,44.6,5.0,20,30.44,10.0,North,-9999.0,-,N/A,,Clear,0,2013-06-19 06:55:00
1:15 AM,44.6,5.0,20,30.43,10.0,North,-9999.0,-,N/A,,Clear,0,2013-06-19 07:15:00
1:35 AM,44.6,5.0,20,30.42,10.0,North,-9999.0,-,N/A,,Clear,0,2013-06-19 07:35:00
1:55 AM,44.6,5.0,20,30.41,10.0,North,-9999.0,-,N/A,,Clear,0,2013-06-19 07:55:00
2:15 AM,46.4,5.0,18,30.41,10.0,North,-9999.0,-,N/A,,Clear,0,2013-06-19 08:15:00
2:35 AM,46.4,5.0,18,30.40,10.0,North,-9999.0,-,N/A,,Clear,0,2013-06-19 08:35:00
2:55 AM,44.6,5.0,20,30.40,10.0,North,-9999.0,-,N/A,,Clear,0,2013-06-19 08:55:00
3:15 AM,44.6,5.0,20,30.40,10.0,North,-9999.0,-,N/A,,Clear,0,2013-06-19 09:15:00
3:35 AM,44.6,5.0,20,30.39,10.0,North,-9999.0,-,N/A,,Clear,0,2013-06-19 09:35:00
3:55 AM,44.6,5.0,20,30.39,10.0,North,-9999.0,-,N/A,,Clear,0,2013-06-19 09:55:00
4:15 AM,44.6,5.0,20,30.39,10.0,North,-9999.0,-,N/A,,Clear,0,2013-06-19 10:15:00
4:35 AM,44.6,5.0,20,30.39,10.0,North,-9999.0,-,N/A,,Clear,0,2013-06-19 10:35:00
4:55 AM,42.8,6.8,23,30.40,10.0,North,-9999.0,-,N/A,,Clear,0,2013-06-19 10:55:00
5:15 AM,42.8,6.8,23,30.40,10.0,North,-9999.0,-,N/A,,Clear,0,2013-06-19 11:15:00
5:35 AM,42.8,6.8,23,30.40,10.0,North,-9999.0,-,N/A,,Clear,0,2013-06-19 11:35:00
5:55 AM,41.0,8.6,26,30.39,10.0,North,-9999.0,-,N/A,,Clear,0,2013-06-19 11:55:00
6:15 AM,42.8,8.6,25,30.39,10.0,North,-9999.0,-,N/A,,Clear,0,2013-06-19 12:15:00
6:35 AM,42.8,10.4,27,30.39,10.0,North,-9999.0,-,N/A,,Clear,0,2013-06-19 12:35:00
6:55 AM,44.6,10.4,25,30.40,10.0,North,-9999.0,-,N/A,,Clear,0,2013-06-19 12:55:00
7:15 AM,46.4,10.4,23,30.40,10.0,North,-9999.0,-,N/A,,Clear,0,2013-06-19 13:15:00
7:35 AM,46.4,12.2,25,30.40,10.0,North,-9999.0,-,N/A,,Clear,0,2013-06-19 13:35:00
7:55 AM,46.4,14.0,27,30.40,10.0,North,-9999.0,-,N/A,,Clear,0,2013-06-19 13:55:00
8:15 AM,46.4,14.0,27,30.40,10.0,North,-9999.0,-,N/A,,Clear,0,2013-06-19 14:15:00
8:35 AM,48.2,12.2,24,30.40,10.0,North,-9999.0,-,N/A,,Clear,0,2013-06-19 14:35:00
8:55 AM,46.4,12.2,25,30.40,10.0,North,-9999.0,-,N/A,,Clear,0,2013-06-19 14:55:00
9:15 AM,46.4,12.2,25,30.41,10.0,North,-9999.0,-,N/A,,Clear,0,2013-06-19 15:15:00
9:35 AM,46.4,10.4,23,30.41,10.0,North,-9999.0,-,N/A,,Clear,0,2013-06-19 15:35:00
9:55 AM,50.0,12.2,22,30.41,10.0,North,-9999.0,-,N/A,,Clear,0,2013-06-19 15:55:00
10:15 AM,50.0,12.2,22,30.40,10.0,North,-9999.0,-,N/A,,Clear,0,2013-06-19 16:15:00
10:35 AM,50.0,14.0,24,30.41,10.0,North,-9999.0,-,N/A,,Clear,0,2013-06-19 16:35:00
10:55 AM,50.0,12.2,22,30.41,10.0,North,-9999.0,-,N/A,,Clear,0,2013-06-19 16:55:00
11:15 AM,51.8,12.2,21,30.41,10.0,North,-9999.0,-,N/A,,Clear,0,2013-06-19 17:15:00
11:35 AM,51.8,12.2,21,30.41,10.0,North,-9999.0,-,N/A,,Clear,0,2013-06-19 17:35:00
11:55 AM,53.6,12.2,19,30.41,10.0,North,-9999.0,-,N/A,,Clear,0,2013-06-19 17:55:00
12:15 PM,53.6,12.2,19,30.41,10.0,North,-9999.0,-,N/A,,Clear,0,2013-06-19 18:15:00
12:35 PM,53.6,10.4,18,30.40,10.0,North,-9999.0,-,N/A,,Clear,0,2013-06-19 18:35:00
12:55 PM,53.6,10.4,18,30.40,10.0,North,-9999.0,-,N/A,,Clear,0,2013-06-19 18:55:00
1:15 PM,55.4,8.6,15,30.40,7.0,North,-9999.0,-,N/A,,Scattered Clouds,0,2013-06-19 19:15:00
1:35 PM,55.4,10.4,17,30.40,7.0,North,-9999.0,-,N/A,,Clear,0,2013-06-19 19:35:00
1:55 PM,55.4,8.6,15,30.40,5.0,North,-9999.0,-,N/A,,Haze,0,2013-06-19 19:55:00
2:15 PM,55.4,8.6,15,30.39,10.0,North,-9999.0,-,N/A,,Clear,0,2013-06-19 20:15:00
2:35 PM,57.2,8.6,14,30.38,10.0,North,-9999.0,-,N/A,,Clear,0,2013-06-19 20:35:00
2:55 PM,59.0,8.6,14,30.39,7.0,North,-9999.0,-,N/A,,Clear,0,2013-06-19 20:55:00
3:15 PM,57.2,5.0,12,30.39,5.0,North,-9999.0,-,N/A,,Haze,0,2013-06-19 21:15:00
3:35 PM,55.4,5.0,13,30.38,5.0,North,-9999.0,-,N/A,,Haze,0,2013-06-19 21:35:00
3:55 PM,55.4,5.0,13,30.37,5.0,North,-9999.0,-,N/A,,Haze,0,2013-06-19 21:55:00
4:15 PM,55.4,5.0,13,30.37,0.5,North,-9999.0,-,N/A,,Haze,0,2013-06-19 22:15:00
4:35 PM,55.4,3.2,12,30.36,1.0,North,-9999.0,-,N/A,,Haze,0,2013-06-19 22:35:00
4:55 PM,55.4,5.0,13,30.37,1.5,North,-9999.0,-,N/A,,Haze,0,2013-06-19 22:55:00
5:15 PM,55.4,6.8,14,30.36,1.5,North,-9999.0,-,N/A,,Haze,0,2013-06-19 23:15:00
5:35 PM,55.4,5.0,13,30.36,1.5,North,-9999.0,-,N/A,,Haze,0,2013-06-19 23:35:00
5:55 PM,55.4,5.0,13,30.36,3.0,North,-9999.0,-,N/A,,Haze,0,2013-06-19 23:55:00
6:15 PM,55.4,5.0,13,30.36,2.5,North,-9999.0,-,N/A,,Haze,0,2013-06-20 00:15:00
6:35 PM,55.4,6.8,14,30.36,2.0,North,-9999.0,-,N/A,,Haze,0,2013-06-20 00:35:00
6:55 PM,55.4,5.0,13,30.36,1.8,North,-9999.0,-,N/A,,Haze,0,2013-06-20 00:55:00
7:15 PM,53.6,5.0,14,30.36,2.0,North,-9999.0,-,N/A,,Haze,0,2013-06-20 01:15:00
7:35 PM,53.6,3.2,13,30.36,2.0,North,-9999.0,-,N/A,,Haze,0,2013-06-20 01:35:00
7:55 PM,53.6,3.2,13,30.36,2.0,North,-9999.0,-,N/A,,Haze,0,2013-06-20 01:55:00
8:15 PM,51.8,3.2,14,30.36,2.0,North,-9999.0,-,N/A,,Haze,0,2013-06-20 02:15:00
8:35 PM,51.8,3.2,14,30.36,2.5,North,-9999.0,-,N/A,,Haze,0,2013-06-20 02:35:00
8:55 PM,51.8,5.0,15,30.36,3.0,North,-9999.0,-,N/A,,Haze,0,2013-06-20 02:55:00
9:15 PM,51.8,3.2,14,30.37,3.0,North,-9999.0,-,N/A,,Haze,0,2013-06-20 03:15:00
9:35 PM,51.8,3.2,14,30.38,4.0,North,-9999.0,-,N/A,,Haze,0,2013-06-20 03:35:00
9:55 PM,50.0,1.4,14,30.38,4.0,North,-9999.0,-,N/A,,Haze,0,2013-06-20 03:55:00
10:15 PM,50.0,1.4,14,30.39,4.0,North,-9999.0,-,N/A,,Haze,0,2013-06-20 04:15:00
10:35 PM,48.2,3.2,16,30.40,4.0,North,-9999.0,-,N/A,,Haze,0,2013-06-20 04:35:00
10:55 PM,46.4,3.2,17,30.40,4.0,North,-9999.0,-,N/A,,Haze,0,2013-06-20 04:55:00
11:15 PM,46.4,3.2,17,30.39,3.0,North,-9999.0,-,N/A,,Haze,0,2013-06-20 05:15:00
11:35 PM,46.4,1.4,16,30.39,3.0,North,-9999.0,-,N/A,,Haze,0,2013-06-20 05:35:00
11:55 PM,46.4,1.4,16,30.40,4.0,North,-9999.0,-,N/A,,Haze,0,2013-06-20 05:55:00